Satellite-Ground Cal/Val Region Overpasses Predictions

Prediction of Satellite NPP Overpassing Cal/Val Region: PacNW

Region Location: (Latitude: 10.00, Longitude: 139.50) to (Latitude: 22.70, Longitude: 165.60).

Table of predicted overpasses for the next 14.0 days since TLE Epoch: 8/16/2021
Interval Starting Time Starting Location Ending Time Ending Location
1 08/16/2021 03:11:34 ( 10.03, 151.83) 08/16/2021 03:15:09 ( 22.65, 148.83)
2 08/16/2021 15:43:27 ( 22.70, 149.08) 08/16/2021 15:47:03 ( 10.02, 146.06)
3 08/17/2021 02:52:32 ( 10.02, 156.59) 08/17/2021 02:56:07 ( 22.64, 153.59)
4 08/17/2021 15:24:26 ( 22.65, 153.82) 08/17/2021 15:28:01 ( 10.03, 150.82)
5 08/18/2021 02:33:31 ( 10.01, 161.35) 08/18/2021 02:37:07 ( 22.69, 158.33)
6 08/18/2021 15:05:25 ( 22.66, 158.58) 08/18/2021 15:09:00 ( 10.04, 155.58)
7 08/19/2021 02:15:07 ( 12.24, 165.59) 08/19/2021 02:18:05 ( 22.68, 163.09)
8 08/19/2021 03:55:59 ( 10.01, 140.73) 08/19/2021 03:57:29 ( 15.29, 139.51)
9 08/19/2021 14:46:23 ( 22.67, 163.34) 08/19/2021 14:49:58 ( 10.04, 160.33)
10 08/20/2021 03:36:59 ( 10.06, 145.48) 08/20/2021 03:40:34 ( 22.68, 142.47)
11 08/20/2021 14:30:20 ( 12.23, 165.59) 08/20/2021 14:30:57 ( 10.05, 165.09)
12 08/20/2021 16:08:52 ( 22.67, 142.72) 08/20/2021 16:12:27 ( 10.05, 139.72)
13 08/21/2021 03:17:57 ( 10.05, 150.23) 08/21/2021 03:21:32 ( 22.67, 147.23)
14 08/21/2021 15:49:50 ( 22.68, 147.48) 08/21/2021 15:53:25 ( 10.06, 144.48)
15 08/22/2021 02:58:56 ( 10.04, 154.99) 08/22/2021 03:02:31 ( 22.66, 151.99)
16 08/22/2021 15:30:49 ( 22.69, 152.24) 08/22/2021 15:34:25 ( 10.01, 149.22)
17 08/23/2021 02:39:55 ( 10.03, 159.75) 08/23/2021 02:43:30 ( 22.65, 156.75)
18 08/23/2021 15:11:47 ( 22.69, 157.00) 08/23/2021 15:15:23 ( 10.01, 153.98)
19 08/24/2021 02:20:53 ( 10.02, 164.51) 08/24/2021 02:24:28 ( 22.65, 161.50)
20 08/24/2021 14:52:47 ( 22.64, 161.74) 08/24/2021 14:56:22 ( 10.02, 158.74)
21 08/25/2021 03:43:22 ( 10.02, 143.89) 08/25/2021 03:46:57 ( 22.64, 140.89)
22 08/25/2021 14:34:48 ( 18.96, 165.59) 08/25/2021 14:37:20 ( 10.03, 163.50)
23 08/25/2021 16:15:15 ( 22.65, 141.12) 08/25/2021 16:17:08 ( 16.02, 139.51)
24 08/26/2021 03:24:20 ( 10.01, 148.65) 08/26/2021 03:27:56 ( 22.70, 145.63)
25 08/26/2021 15:56:14 ( 22.65, 145.88) 08/26/2021 15:59:49 ( 10.03, 142.88)
26 08/27/2021 03:05:19 ( 10.01, 153.41) 08/27/2021 03:08:55 ( 22.69, 150.39)
27 08/27/2021 15:37:12 ( 22.66, 150.64) 08/27/2021 15:40:47 ( 10.04, 147.64)
28 08/28/2021 02:46:17 ( 10.00, 158.17) 08/28/2021 02:49:53 ( 22.68, 155.15)
29 08/28/2021 15:18:11 ( 22.67, 155.40) 08/28/2021 15:21:46 ( 10.05, 152.39)
30 08/29/2021 02:27:17 ( 10.05, 162.91) 08/29/2021 02:30:52 ( 22.68, 159.91)
